Ahwaz, Iran

7:20 PM +0430 on June 23, 2018 (GMT +0430)
Ahwaz

Weather History for OIAW - June, 2017

Change the Weather History Date:

Thursday, June 29, 2017

  Actual Average Record
Temperature  
Mean Temperature 106 °F -  
Max Temperature 128 °F - - ()
Min Temperature 84 °F - - ()
Cooling Degree Days 41    
Growing Degree Days 56 (Base 50)    
Moisture  
Dew Point 62 °F    
Average Humidity 22    
Maximum Humidity 43    
Minimum Humidity 8    
Precipitation  
Precipitation 0.00 in - - ()
Sea Level Pressure  
Sea Level Pressure 29.37 in    
Wind  
Wind Speed 6 mph ()    
Max Wind Speed 16 mph    
Max Gust Speed 24 mph    
Visibility 4.0 miles    
Events      
T = Trace of Precipitation, MM = Missing Value Source: Averaged Metar Reports

Daily Weather History Graph

Daily Weather History Graph

Search for Another Location

Airport or City:

Astronomy

Jun. 29, 2017 Rise Set
Actual Time 6:13 AM +0430 8:23 PM +0430
Civil Twilight 5:45 AM +0430 8:51 PM +0430
Nautical Twilight 5:11 AM +0430 9:25 PM +0430
Astronomical Twilight 4:35 AM +0430 10:02 PM +0430
Moon 11:44 AM +0430 (6/29) No Moon Set
Length of Visible Light 15h 05m
Length of Day
14h 09m
Waxing Crescent, 33% of the Moon is Illuminated
Jun 29
Waxing Crescent
Jul 1
First Quarter
Jul 9
Full
Jul 16
Last Quarter
Jul 23
New

Hourly Weather History & Observations

Time (+0430) Temp. Heat Index Dew Point Humidity Pressure Visibility Wind Dir Wind Speed Gust Speed Precip Events Conditions
12:00 AM 105.8 °F 109.8 °F 64.4 °F 26% 29.36 in - West 6.9 mph - N/A   Clear
12:20 AM 105.8 °F 109.8 °F 64.4 °F 26% 29.36 in - West 4.6 mph - N/A   Clear
12:30 AM 105.8 °F 109.8 °F 64.4 °F 26% 29.36 in - West 4.6 mph - N/A   Clear
12:54 AM 105.8 °F 109.8 °F 64.4 °F 26% 29.36 in - WNW 6.9 mph - N/A   Clear
1:00 AM 105.8 °F 109.8 °F 64.4 °F 26% 29.36 in - WNW 6.9 mph - N/A   Clear
1:24 AM 104.0 °F 107.4 °F 64.4 °F 27% 29.36 in - West 4.6 mph - N/A   Clear
1:30 AM 105 °F - 64 °F 18% 29.37 in 6 mi West 4.5 mph - -  
1:30 AM 104.0 °F 107.4 °F 64.4 °F 27% 29.36 in - West 4.6 mph - N/A   Clear
2:22 AM 95.0 °F 94.4 °F 59.0 °F 30% 29.36 in - Variable 2.3 mph - N/A   Clear
2:30 AM 95.0 °F 94.4 °F 59.0 °F 30% 29.36 in - Variable 2.3 mph - N/A   Clear
3:23 AM 89.6 °F 88.1 °F 57.2 °F 33% 29.36 in - WSW 2.3 mph - N/A   Clear
3:30 AM 89.6 °F 88.1 °F 57.2 °F 33% 29.36 in - WSW 2.3 mph - N/A   Clear
4:20 AM 95.0 °F 94.4 °F 59.0 °F 30% 29.36 in - West 4.6 mph - N/A   Clear
4:30 AM 95 °F - 59 °F 21% 29.37 in 6 mi West 4.5 mph - -  
4:30 AM 95.0 °F 94.4 °F 59.0 °F 30% 29.36 in - West 4.6 mph - N/A   Clear
5:25 AM 91.4 °F 89.9 °F 57.2 °F 31% 29.36 in 5.0 mi East 2.3 mph - N/A   Unknown
5:30 AM 91.4 °F 89.9 °F 57.2 °F 31% 29.36 in 5.0 mi East 2.3 mph - N/A   Unknown
6:24 AM 86.0 °F 84.2 °F 53.6 °F 33% 29.39 in 3.7 mi East 2.3 mph - N/A   Unknown
6:30 AM 86.0 °F 84.2 °F 53.6 °F 33% 29.39 in 3.7 mi East 2.3 mph - N/A   Unknown
7:22 AM 86.0 °F 86.1 °F 60.8 °F 43% 29.39 in 3.1 mi Calm Calm - N/A   Haze
7:30 AM 86 °F - 60 °F 32% 29.41 in 3 mi Calm Calm - -   Haze
7:30 AM 86.0 °F 86.1 °F 60.8 °F 43% 29.39 in 3.1 mi Calm Calm - N/A   Haze
7:56 AM 91.4 °F 92.1 °F 62.6 °F 38% 29.39 in 3.1 mi East 4.6 mph - N/A   Haze
8:23 AM 95.0 °F 96.0 °F 62.6 °F 34% 29.42 in 3.1 mi SE 2.3 mph - N/A   Haze
8:30 AM 95.0 °F 96.0 °F 62.6 °F 34% 29.42 in 3.1 mi SE 2.3 mph - N/A   Haze
9:00 AM 100.4 °F 104.9 °F 66.2 °F 33% 29.42 in 3.7 mi SE 2.3 mph - N/A   Unknown
9:30 AM 104.0 °F 108.9 °F 66.2 °F 29% 29.42 in 3.7 mi South 2.3 mph - N/A   Unknown
9:53 AM 107.6 °F 117.0 °F 69.8 °F 30% 29.42 in 3.7 mi SE 4.6 mph - N/A   Unknown
10:00 AM 107.6 °F 117.0 °F 69.8 °F 30% 29.42 in 3.7 mi SE 4.6 mph - N/A   Unknown
10:22 AM 105.8 °F 111.5 °F 66.2 °F 28% 29.42 in 4.3 mi SSE 4.6 mph - N/A   Unknown
10:30 AM 107 °F - 67 °F 19% 29.42 in 4 mi SSE 4.5 mph - -   Haze
10:30 AM 105.8 °F 111.5 °F 66.2 °F 28% 29.42 in 4.3 mi SSE 4.6 mph - N/A   Unknown
11:00 AM 113.0 °F 122.8 °F 69.8 °F 25% 29.42 in 4.3 mi South 6.9 mph - N/A   Unknown
11:30 AM 114.8 °F 117.8 °F 60.8 °F 18% 29.42 in 4.3 mi SSE 9.2 mph - N/A   Unknown
11:52 AM 118.4 °F 121.2 °F 60.8 °F 16% 29.42 in 4.3 mi South 9.2 mph - N/A   Unknown
12:00 PM 118.4 °F 121.2 °F 60.8 °F 16% 29.42 in 4.3 mi South 9.2 mph - N/A   Unknown
12:21 PM 120.2 °F 124.1 °F 62.6 °F 16% 29.39 in 4.3 mi SSW 9.2 mph - N/A   Unknown
12:30 PM 120.2 °F 124.1 °F 62.6 °F 16% 29.39 in 4.3 mi SSW 9.2 mph - N/A   Unknown
1:00 PM 122.0 °F 125.4 °F 62.6 °F 15% 29.39 in - South 9.2 mph - N/A   Clear
1:30 PM 121 °F - 69 °F 13% 29.40 in 6 mi SW 8.9 mph - -  
1:30 PM 122.0 °F 133.9 °F 69.8 °F 20% 29.39 in - SW 9.2 mph - N/A   Clear
2:00 PM 122.0 °F 133.9 °F 69.8 °F 20% 29.39 in - SW 9.2 mph - N/A   Clear
2:27 PM 122.0 °F 133.9 °F 69.8 °F 20% 29.39 in - WSW 9.2 mph - N/A   Clear
2:30 PM 122.0 °F 133.9 °F 69.8 °F 20% 29.39 in - WSW 9.2 mph - N/A   Clear
2:53 PM 122.0 °F 135.7 °F 71.6 °F 21% 29.36 in - SW 9.2 mph - N/A   Clear
3:00 PM 122.0 °F 135.7 °F 71.6 °F 21% 29.36 in - SW 9.2 mph - N/A   Clear
3:30 PM 123.8 °F 131.9 °F 68.0 °F 17% 29.36 in - WSW 9.2 mph - N/A   Clear
4:00 PM 123.8 °F 126.6 °F 62.6 °F 14% 29.36 in - SW 6.9 mph - N/A   Clear
4:30 PM 127 °F - 63 °F 8% 29.35 in 6 mi SSW 4.5 mph - -  
4:30 PM 127.4 °F 130.2 °F 62.6 °F 13% 29.33 in - SSW 4.6 mph - N/A   Clear
4:51 PM 129.2 °F 142.1 °F 71.6 °F 17% 29.33 in - SW 2.3 mph - N/A   Clear
5:00 PM 129.2 °F 142.1 °F 71.6 °F 17% 29.33 in - SW 2.3 mph - N/A   Clear
5:23 PM 125.6 °F 133.2 °F 66.2 °F 16% 29.33 in - West 4.6 mph - N/A   Clear
5:30 PM 125.6 °F 133.2 °F 66.2 °F 16% 29.33 in - West 4.6 mph - N/A   Clear
5:51 PM 123.8 °F 126.6 °F 62.6 °F 14% 29.30 in - WNW 6.9 mph - N/A   Clear
6:00 PM 123.8 °F 126.6 °F 62.6 °F 14% 29.30 in - WNW 6.9 mph - N/A   Clear
6:30 PM 123.8 °F 126.6 °F 62.6 °F 14% 29.30 in - WNW 6.9 mph - N/A   Clear
7:00 PM 120.2 °F 122.6 °F 60.8 °F 15% 29.30 in 3.7 mi WNW 9.2 mph - N/A   Unknown
7:30 PM 118 °F - 58 °F 9% 29.33 in 2 mi WNW 13.4 mph - -   Widespread Dust
7:30 PM 118.4 °F 119.8 °F 59.0 °F 15% 29.30 in 2.5 mi WNW 13.8 mph - N/A   Unknown
8:00 PM 116.6 °F 118.3 °F 59.0 °F 16% 29.30 in 2.5 mi West 16.1 mph - N/A   Unknown
8:30 PM 114.8 °F - 51.8 °F 13% 29.33 in 2.5 mi WNW 13.8 mph - N/A   Unknown
8:51 PM 113.0 °F 112.0 °F 55.4 °F 15% 29.33 in 3.7 mi WNW 13.8 mph 24.2 mph N/A   Unknown
9:00 PM 113.0 °F 112.0 °F 55.4 °F 15% 29.33 in 3.7 mi WNW 13.8 mph 24.2 mph N/A   Unknown
9:22 PM 113.0 °F 111.1 °F 53.6 °F 14% 29.33 in 3.1 mi WNW 13.8 mph - N/A   Unknown
9:30 PM 113.0 °F 111.1 °F 53.6 °F 14% 29.33 in 3.1 mi WNW 13.8 mph - N/A   Unknown
9:52 PM 111.2 °F 109.6 °F 53.6 °F 15% 29.33 in 3.7 mi WNW 11.5 mph - N/A   Unknown
10:00 PM 111.2 °F 109.6 °F 53.6 °F 15% 29.33 in 3.7 mi WNW 11.5 mph - N/A   Unknown
10:22 PM 109.4 °F 107.9 °F 53.6 °F 16% 29.36 in 4.3 mi WNW 11.5 mph 19.6 mph N/A   Unknown
10:30 PM 110 °F - 54 °F 9% 29.36 in 4 mi WNW 11.2 mph - -   Widespread Dust
10:30 PM 109.4 °F 107.9 °F 53.6 °F 16% 29.36 in 4.3 mi WNW 11.5 mph 19.6 mph N/A   Unknown
10:52 PM 109.4 °F 107.9 °F 53.6 °F 16% 29.36 in 5.0 mi WNW 11.5 mph - N/A   Unknown
11:00 PM 109.4 °F 107.9 °F 53.6 °F 16% 29.36 in 5.0 mi WNW 11.5 mph - N/A   Unknown
11:20 PM 107.6 °F 106.1 °F 53.6 °F 17% 29.36 in - NW 13.8 mph - N/A   Clear
11:30 PM 107.6 °F 106.1 °F 53.6 °F 17% 29.36 in - NW 13.8 mph - N/A   Clear
11:52 PM 105.8 °F 104.3 °F 53.6 °F 18% 29.36 in - NW 11.5 mph - N/A   Clear